Location: Unspecified
(0.0000°N, 0.0000°E)
Time: 04:12:35
(UTC+00:00)

Vanguard 1 - Pass Details

Date: 10 December 2023
Orbit: 653 x 3826 km, 34.3° (Epoch: 22 February)

Event Time Altitude Azimuth Distance (km) Brightness Sun altitude
Rises 16:08:24 0° 290° (WNW) 4,397 14.1 23.9°
Reaches altitude 10° 16:12:25 10° 310° (NW) 3,903 13.5 23.0°
Maximum altitude 16:19:02 18° 349° (NNW) 4,069 13.2 21.5°
Drops below altitude 10° 16:28:12 10° 25° (NNE) 5,602 13.5 19.4°
Sets 16:36:19 0° 42° (NE) 7,263 13.9 17.6°
